Location: Warwick
(41.7000°N, 71.4170°W)
Time: 18:10:49
(UTC-05:00)

BREEZE-M DEB (TANK) - Visible Passes

Search period start: 25 November 2014 00:00
Search period end: 05 December 2014 00:00
Orbit: 291 x 16022 km, 49.5° (Epoch: 24 November)

Date Brightness Start Highest point End Pass type
(mag) Time Alt. Az. Time Alt. Az. Time Alt. Az.
25 Nov 8.5 15:31:32 10° WNW 17:18:47 88° SW 19:03:50 10° SSE visible
25 Nov 9.0 21:17:54 10° NW 22:24:52 21° WNW 23:30:40 10° WSW visible
26 Nov 8.5 15:46:36 10° WNW 17:37:02 84° WSW 19:17:48 10° SSE visible
26 Nov 9.2 21:38:47 10° NW 22:34:40 17° WNW 23:31:57 10° W visible
27 Nov 8.5 16:01:43 10° WNW 17:54:02 80° WSW 19:31:32 10° SSE visible
27 Nov 9.4 22:02:45 10° NW 22:44:20 14° WNW 23:27:55 10° W visible
28 Nov 9.4 06:20:24 10° E 06:29:18 12° ENE 06:42:52 10° ENE visible
28 Nov 8.5 16:16:52 10° WNW 18:09:57 75° WSW 19:45:01 10° SSE visible
28 Nov 9.7 22:37:37 10° NW 22:53:53 11° WNW 23:10:36 10° WNW visible
29 Nov 8.5 16:32:03 10° WNW 18:24:56 71° WSW 19:58:17 10° S visible
30 Nov 8.5 16:47:17 10° WNW 18:39:07 66° WSW 20:11:16 10° S visible
01 Dec 8.6 17:02:35 10° WNW 18:52:36 62° WSW 20:24:00 10° S visible
02 Dec 8.6 17:17:56 10° NW 19:05:28 57° W 20:36:24 10° S visible
03 Dec 8.7 17:33:22 10° NW 19:17:49 53° W 20:48:27 10° SSW visible
04 Dec 8.7 17:48:55 10° NW 19:29:43 48° W 21:00:03 10° SSW visible
